Location: Unspecified
(48.7670°N, 0.0000°E)
Time: 01:58:35
(UTC+00:00)

Altair - Pass Details

Date: 30 June 2019
Orbit: 1501 x 1683 km, 47.2° (Epoch: 14 October)

Event Time Altitude Azimuth Distance (km) Brightness Sun altitude
Rises 19:12:13 0° 252° (WSW) 4,677 10.8 6.7°
Reaches altitude 10° 19:15:13 10° 251° (WSW) 3,714 10.3 6.3°
Maximum altitude 19:24:37 78° 167° (SSE) 1,617 7.7 4.9°
Drops below altitude 10° 19:34:25 10° 84° (E) 3,862 9.2 3.6°
Sets 19:37:36 0° 83° (E) 4,871 9.7 3.1°
